Location: Andreyevka
(48.7985°N, 31.5978°E)
Time: 05:54:07
(UTC+00:00)

Daily predictions for brighter satellites

Satellite Brightness Start Highest point End
(mag) Time Altitude Azimuth Time Altitude Azimuth Time Altitude Azimuth
CENTAUR R/B 3.5 01:13:02 60° E 01:13:02 60° E 01:20:27 10° SE
Cosmos 2263 Rocket 3.6 01:35:03 34° E 01:35:03 34° E 01:39:49 10° NE
ALOS 4.4 01:34:11 10° NE 01:37:40 23° E 01:37:40 23° E
USA 238 DEB 4.4 01:53:19 45° S 01:53:19 45° S 01:58:23 10° SSE
USA 238 4.4 01:53:23 46° SSE 01:53:23 46° SSE 01:58:29 10° SSE
Lacrosse 4 Rocket 3.7 01:56:29 22° ESE 01:56:29 22° ESE 01:58:19 10° ESE
ATLAS 5 CENTAUR R/B 4.2 02:05:26 21° NE 02:05:26 21° NE 02:06:18 10° NE
Lacrosse 5 3.6 02:03:55 25° SE 02:04:49 26° SE 02:09:01 10° ENE
Cosmos 1943 3.7 02:07:47 54° SE 02:07:47 54° SE 02:12:08 10° SSE
USA 305 4.5 02:24:34 30° NE 02:24:34 30° NE 02:27:05 10° ENE
Cosmos 1151 Rocket 3.9 02:26:17 45° ESE 02:26:17 45° ESE 02:29:44 10° SSE
Cosmos 2227 Rocket 4.1 02:29:48 17° N 02:29:48 17° N 02:31:32 10° N
USA 306 4.2 02:32:36 34° NE 02:32:36 34° NE 02:35:28 10° ENE
ATLAS 3B R/B 3.1 02:28:43 37° NNW 02:31:28 61° NE 02:38:32 10° ESE
Cosmos 2227 4.1 02:31:29 78° SSW 02:31:54 89° ESE 02:37:33 10° NNE
Cosmos 1745 Rocket 4.1 02:33:14 56° NW 02:33:14 56° NW 02:38:33 10° N
METEOR-M 4.4 02:33:26 10° NNE 02:38:47 67° ESE 02:44:05 10° S
Meteor 1-31 Rocket 3.6 02:36:39 10° NNE 02:39:45 46° ENE 02:39:45 46° ENE
Cosmos 1328 Rocket 3.8 02:41:33 58° NNE 02:42:12 68° E 02:46:36 10° SSE
SL-4 R/B 2.7 02:45:43 46° NE 02:45:43 46° NE 02:48:28 10° ENE
Cosmos 1782 3.5 02:45:53 39° NNE 02:47:02 53° ENE 02:50:58 10° SSE
Cosmos 923 Rocket 3.9 02:47:36 48° NNW 02:49:07 88° ENE 02:54:27 10° SSE
Cosmos 2181 Rocket 3.9 02:44:57 10° N 02:51:13 88° E 02:57:22 10° S
ATLAS CENTAUR R/B 2.1 02:53:03 39° NNE 02:53:25 40° NE 02:57:05 10° ESE
Cosmos 1844 Rocket 4.5 02:48:43 10° SSE 02:53:39 32° ESE 02:58:38 10° NE
SJ 16-02 1.4 02:52:05 35° S 02:53:54 78° ESE 02:58:21 10° NNE
NOSS 3-2 (C) 4.3 02:55:11 40° W 02:56:37 44° WSW 03:04:31 10° S
SAR-Lupe-1 4.3 02:53:34 10° SSE 02:56:45 65° SE 02:56:45 65° SE
CZ-4C R/B 3.1 02:52:53 10° S 02:57:32 44° ESE 03:03:04 10° NE
Cosmos 1709 Rocket 3.9 02:51:14 10° SSW 02:57:35 71° W 03:03:59 10° N
RESURS DK-1 4.3 02:54:34 10° S 02:58:14 31° ESE 03:01:55 10° NE
NOSS 3-4 (A) 3.3 02:55:49 30° SW 02:58:58 89° SE 03:05:23 10° NE
NOSS 3-4 (C) 3.3 02:55:53 29° SW 02:59:06 89° ESE 03:05:31 10° NE
Cosmos 2297 Rocket 4.2 03:03:17 14° NNW 03:03:17 14° NNW 03:05:01 10° N
Cosmos 1766 Rocket 3.4 02:57:49 10° SSW 03:02:18 75° W 03:06:48 10° N
CENTAUR R/B 3.6 03:00:16 37° W 03:02:21 43° WSW 03:10:29 10° S
Gbstr 26 Del rocket 2.6 03:05:26 74° S 03:05:26 74° S 03:09:12 10° ESE
Okean 3 Rocket 3.4 03:06:43 61° W 03:07:00 63° WNW 03:11:24 10° N
FALCON 9 DEB 4.5 03:07:37 29° S 03:08:18 32° SE 03:11:14 10° ENE
ERS-2 4.4 03:05:24 10° S 03:06:02 14° SSW 03:06:02 14° SSW
Cosmos 1408 Rocket 3.7 03:04:55 10° S 03:09:22 75° E 03:13:50 10° NNE
ARGOS Delta rocket 4.1 03:05:25 10° N 03:10:25 49° WNW 03:11:40 40° WSW
COSMO-SKYMED 1 2.4 03:06:29 10° S 03:10:49 76° WSW 03:12:44 33° NNW
Cosmos 158 Rocket 3.8 03:12:49 43° NW 03:14:07 59° WSW 03:18:59 10° S
ALOS 2.4 03:11:05 10° N 03:15:35 47° WNW 03:16:09 44° W
Cosmos 1689 Rocket 3.1 03:13:12 10° SSE 03:15:02 36° S 03:15:02 36° S
Meteor 1-26 Rocket 4.2 03:11:41 11° NNW 03:17:10 60° W 03:22:41 10° S
Cosmos 1680 Rocket 3.4 03:14:31 27° NNW 03:17:29 72° WSW 03:22:46 10° SSE
H-2A R/B 4.0 03:14:16 10° NNE 03:18:02 43° E 03:21:45 10° S
Cosmos 2263 Rocket 2.4 03:16:49 36° W 03:18:31 46° NW 03:24:01 10° NNE
ATLAS 2AS CENTAUR R/B 3.0 03:10:44 10° SW 03:18:44 87° NW 03:26:37 10° NE
Meteor PRIRODA 3.8 03:17:00 10° NNE 03:20:45 75° ESE 03:24:28 10° S
ADEOS 3.6 03:16:16 10° N 03:21:22 53° WNW 03:26:24 10° SW
BREEZE-M DEB (TANK) 3.4 03:25:11 30° SSW 03:26:10 42° SSE 03:30:02 10° E
Cosmos 2074 Rocket 4.1 03:20:48 10° S 03:27:00 81° E 03:33:14 10° N
USA 307 3.6 03:26:27 33° NW 03:27:39 41° N 03:31:46 10° ENE
Lacrosse 4 Rocket 2.5 03:32:50 27° WSW 03:32:50 27° WSW 03:36:26 10° S
CZ-2C R/B 4.1 03:28:08 10° SE 03:33:06 37° ENE 03:38:00 10° N
USA 308 3.6 03:32:30 30° NW 03:33:59 41° N 03:38:05 10° ENE
FENGYUN 3A 4.1 03:29:48 10° N 03:34:46 38° WNW 03:39:42 10° SW
FALCON 9 DEB 3.9 03:34:47 34° NNW 03:35:32 39° N 03:38:50 10° ENE
Cosmos 2082 Rocket 4.3 03:31:41 10° N 03:35:48 20° NE 03:39:55 10° E
Cosmos 2112 Rocket 4.1 03:33:06 19° NW 03:36:53 58° WSW 03:42:06 10° S
Meteor 1-4 Rocket 4.2 03:38:57 18° SW 03:38:57 18° SW 03:40:09 10° SSW
deb Chang Zheng 4 3.9 03:34:39 10° N 03:38:46 42° WNW 03:42:52 10° SW
CZ-4B R/B 3.1 03:35:03 10° N 03:39:32 65° WNW 03:43:55 10° SSW
Meteor 2-3 Rocket 4.0 03:35:14 10° SW 03:40:44 47° WNW 03:46:21 10° N
Meteor 1-10 Rocket 4.2 03:37:28 10° N 03:43:03 84° ENE 03:48:40 10° SSE
Cosmos 2184 Rocket 4.0 03:36:56 10° S 03:43:15 82° W 03:49:41 10° N
Lacrosse 5 1.8 03:43:10 15° WSW 03:47:24 78° NNW 03:52:30 10° NE
Cosmos 1833 Rocket 4.1 03:43:51 10° NNW 03:48:56 33° NE 03:53:59 10° ESE
Cosmos 2228 Rocket 3.0 03:44:56 10° N 03:49:24 86° WSW 03:53:48 10° S
FALCON 9 DEB 3.1 03:47:34 21° SW 03:49:32 73° SSE 03:52:46 10° ENE
Cosmos 1898 Rocket 3.5 03:44:34 10° SSW 03:49:54 76° WNW 03:55:16 10° NNE
ERBS 3.6 03:52:01 22° NW 03:52:40 24° NNW 03:55:26 10° NE
COSMOS 2406 4.3 03:48:01 10° NNW 03:53:29 42° NE 03:58:55 10° ESE
Cosmos 1515 Rocket 4.1 03:51:37 11° NNW 03:55:31 38° W 03:59:37 10° SSW
Envisat 3.3 03:50:30 10° NNE 03:55:37 73° ESE 04:00:41 10° S
Cosmos 1862 3.2 03:53:05 10° SSW 03:57:08 78° W 04:01:13 10° N
EO 1 Delta rocket 4.0 03:56:19 10° S 04:01:16 53° W 04:05:49 10° NNW
USA 305 3.5 04:00:43 19° NW 04:03:30 45° N 04:07:39 10° E
EXPRESS MD2 3.9 04:01:18 20° WNW 04:03:58 86° SSW 04:11:28 10° ESE
PSLV R/B 3.7 04:04:26 10° N 04:08:19 67° WNW 04:12:05 10° SSW
Cosmos 1937 Rocket 3.4 04:03:30 10° SSW 04:08:38 72° WNW 04:13:52 10° NNE
SMAP 3.8 04:04:04 10° NNE 04:08:41 58° E 04:13:15 10° S
NOSS 7 (H) 4.0 04:06:59 10° SW 04:10:17 84° NW 04:13:13 10° NE
Genesis I 3.1 04:07:35 10° SW 04:11:24 70° NW 04:15:16 10° NE
USA 306 3.5 04:08:45 16° WNW 04:11:54 47° NNE 04:16:04 10° E
Cosmos 1707 Rocket 4.0 04:07:42 10° N 04:12:02 64° ENE 04:16:20 10° SSE
Meteor 1-31 Rocket 4.3 04:12:04 10° NNW 04:14:27 16° WNW 04:15:05 15° WNW
YAOGAN 6 2.4 04:14:31 10° N 04:18:00 62° WNW 04:21:26 10° SSW
MOS 1-B 4.4 04:13:39 10° NNE 04:19:31 88° WNW 04:25:20 10° SSW
Cosmos 1500 Rocket 3.9 04:16:45 10° SW 04:20:48 40° WNW 04:24:55 10° N
Okean O Rocket 2.1 04:16:34 10° NNE 04:21:00 66° ESE 04:25:25 10° S
Cosmos 405 Rocket 2.8 04:17:55 10° SSW 04:21:29 46° WNW 04:25:08 10° N
FALCON 9 DEB 2.9 04:18:24 10° WSW 04:21:36 75° NNW 04:24:50 10° ENE
ATLAS 3B R/B 3.3 04:16:00 12° NW 04:21:59 39° WSW 04:28:31 10° S
FALCON 9 DEB 2.9 04:19:23 10° WSW 04:22:35 71° NNW 04:25:49 10° ENE
COSMOS 2455 3.3 04:16:43 10° SSW 04:22:41 69° ESE 04:28:42 10° NE
Cosmos 1782 4.5 04:21:33 13° WNW 04:22:54 15° W 04:25:13 10° WSW
Nadezhda 3 Rocket 4.1 04:17:23 10° NNW 04:23:32 55° W 04:29:34 10° SSW
Cosmos 1048 Rocket 4.3 04:18:23 10° NNW 04:23:41 69° ENE 04:28:53 10° SSE
SL-4 R/B 2.0 04:21:18 14° WNW 04:24:34 56° N 04:28:08 10° E
Cosmos 1812 3.5 04:22:11 10° NNW 04:25:38 31° W 04:29:03 10° SSW
MOS 1 Rocket 4.0 04:22:10 10° SSW 04:26:37 37° W 04:31:20 10° NNW
NOAA 12 4.3 04:24:36 10° NNE 04:29:55 81° ESE 04:35:10 10° SSW
ATLAS CENTAUR R/B 2.5 04:29:15 11° WNW 04:32:07 25° WSW 04:35:21 10° S
AQUARIUS 4.2 04:28:07 10° NNE 04:32:38 87° ESE 04:37:08 10° SSW
SJ 16-02 2.9 04:30:18 10° W 04:33:04 16° NW 04:35:51 10° NNW
RESURS DK-1 3.1 04:32:26 10° WSW 04:36:13 33° NW 04:40:02 10° NNE
Cosmos 1844 Rocket 2.9 04:31:53 10° SW 04:37:21 49° NW 04:42:52 10° NNE
Sich 1 3.1 04:39:36 10° SSW 04:43:58 59° WNW 04:48:23 10° N
FALCON 9 DEB 3.1 04:41:04 10° W 04:44:16 57° NNW 04:47:27 10° ENE
CZ-4B DEB 4.4 04:40:46 10° N 04:46:01 49° WNW 04:51:16 10° SW
CZ-4C R/B 2.6 04:41:03 10° WSW 04:46:03 44° NW 04:52:06 10° NE
Cosmos 1844 3.9 04:42:25 10° SW 04:47:47 49° NW 04:53:13 10° NNE
PAYLOAD B 4.3 04:44:11 10° N 04:49:35 56° WNW 04:54:55 10° SW
Cosmos 2154 Rocket 4.4 04:44:34 10° SW 04:50:24 41° WNW 04:56:20 10° N
NOSS 3-4 (A) 4.3 04:45:17 10° W 04:50:40 31° NNW 04:56:30 10° NE
NOSS 3-4 (C) 4.3 04:45:24 10° W 04:50:47 31° NNW 04:56:37 10° NE
USA 234 3.4 04:47:01 10° NE 04:53:36 89° SSE 05:00:10 10° WSW
